Powrót do katalogu

STARLINK-34219

AktywnyŁącznośćVLEO
NORAD 64270·PAYLOAD·🇺🇸 United States

Wystrzelony Jun 4, 2025 z Vandenberg Space Force Base

Loading…

Następne Przeloty (najbliższe 24 godziny)

TLE

ŚwieżeSource: CelesTrak SupGP

Epoka: Sep 15, 2026, 02:58 UTC

1 64270C 25120Q   26258.12409722  .00044730  00000+0  13211-2 0  2584
2 64270  53.1576 314.9204 0001194  91.6089 344.3625 15.34379235    19

Śledź STARLINK-34219 w czasie rzeczywistym z AllMySat

Download on the App Store